Regional Weather Roundup
Issued by NWS

Home | Current Version | Previous Version | Graphics & Text | Print | Product List | Glossary On
Versions: 1 2 3 4 5 6 7 8 9 10 11 12 13 14 15 16 17 18 19 20 21 22 23 24 25 26 27 28 29 30 31 32 33 34 35 36 37 38 39 40 41 42 43 44 45 46 47 48 49 50
000
ASUS43 KTOP 280308
RWRKS

WEATHER ROUNDUP FOR KANSAS
NATIONAL WEATHER SERVICE GOODLAND KS
900 PM CST SAT DEC 27 2014

NOTE:  "FAIR" INDICATES FEW OR NO CLOUDS BELOW 12,000 FEET WITH NO
SIGNIFICANT WEATHER AND/OR OBSTRUCTIONS TO VISIBILITY.

KSZ001>006-013>018-027>032-041>047-280400-
NORTHWEST KANSAS

CITY           SKY/WX    TMP DP  RH WIND       PRES   REMARKS
GOODLAND       PTCLDY    15   7  70 SW8       30.16F
HAYS           CLEAR     18   5  57 W6        30.25S
HILL CITY      CLEAR     15  10  80 W6        30.24S
RUSSELL        CLEAR     21  17  84 W5        30.25S
$$

KSZ061>065-074>080-084>089-280400-
SOUTHWEST KANSAS

CITY           SKY/WX    TMP DP  RH WIND       PRES   REMARKS
DODGE CITY     CLEAR     20  13  74 SW6       30.24S
ELKHART          N/A     21   9  60 S8          N/A
GARDEN CITY    CLEAR     20  15  81 W5        30.22S
GREAT BEND     CLEAR     19  12  73 NW6       30.27S
LIBERAL        CLEAR     19  10  68 CALM      30.25S
PRATT          CLEAR     23  21  93 CALM      30.27F
$$

KSZ066>073-081>083-090>101-280400-
SOUTHEAST KANSAS

CITY           SKY/WX    TMP DP  RH WIND       PRES   REMARKS
CHANUTE        CLEAR     25  19  78 NW5       30.30R
COFFEYVILLE    CLEAR     27  19  72 NW5       30.31R
HUTCHINSON     CLEAR     16  10  77 NW3       30.28S
MEDICINE LODGE   N/A     24  18  77 NW3       30.29R
NEWTON         CLEAR     23  12  63 CALM      30.29R
PARSONS        FAIR      24  19  81 CALM      30.31R
WICHITA INTL   CLEAR     26  17  68 N3        30.29R
WICHITA JABRA  CLEAR     24  16  71 NW5       30.28S
WICHITA MCCONL CLEAR     27  17  65 N5        30.29R
WINFIELD       CLEAR     26  19  74 CALM      30.31R
$$

KSZ007>012-019>026-033>040-048>060-102>105-280400-
NORTHEAST KANSAS

CITY           SKY/WX    TMP DP  RH WIND       PRES   REMARKS
CONCORDIA      CLEAR     19  15  84 W3        30.26S
EMPORIA        CLEAR     21  17  84 NW6       30.28R
LAWRENCE       CLEAR     24  18  77 CALM      30.30R
MANHATTAN      CLEAR     21  17  84 W6        30.29R
MARYSVILLE     CLEAR     23  18  80 W5        30.26S
OLATHE IND     FAIR      23  18  81 NW3       30.28R
OLATHE EXE     CLEAR     26  17  68 CALM      30.26R
SALINA         CLEAR     24  15  68 W5        30.30R
TOPEKA BILLARD CLEAR     27  18  69 NW3       30.29R
TOPEKA FORBES  CLEAR     24  17  74 W7        30.27R
$$



USA.gov is the U.S. government's official web portal to all federal, state and local government web resources and services.